Location: Waco, TX
(31.5480°N, 97.1670°W)
Time: 22:14:44
(UTC-05:00)

ISS - Pass Details

Date: 24 May 2017
Orbit: 402 x 409 km, 51.6° (Epoch: 23 May)

Event Time Altitude Azimuth Distance (km) Brightness Sun altitude
Rises 22:33:43 0° 263° (W) 2,323 0.5 -23.3°
Reaches altitude 10° 22:36:25 10° 287° (WNW) 1,464 -0.2 -23.7°
Maximum altitude 22:38:28 15° 325° (NW) 1,182 -0.6 -24.0°
Drops below altitude 10° 22:40:32 10° 4° (N) 1,466 -0.5 -24.3°
Sets 22:43:15 0° 29° (NNE) 2,328 0.3 -24.6°
